Tracking 18647 objects as of 30-May-2017
HD Live streaming from Space Station
objects crossing your sky now

CANX-1

Track CANX-1 now!
10-day predictions
CANX-1 is classified as:


NORAD ID: 27847
Int'l Code: 2003-031H
Perigee: 818.8 km
Apogee: 832.7 km
Inclination: 98.7 °
Period: 101.3 minutes
Semi major axis: 7196 km
RCS: 0.0073 m2 (small)
Launch date: June 30, 2003
Source: Canada (CA)
Launch site: PLESETSK MISSILE AND SPACE COMPLEX (PKMTR)
Uplink (MHz):
Downlink (MHz): 437.880
Beacon (MHz):
Mode: 1200bps AFSK
Call sign: VA3SFL
Status: Inactive

Your satellite tracking list
Your tracking list is empty





NASA's NSSDC Master Catalog

Two Line Element Set (TLE):
1 27847U 03031H   17149.96173802 +.00000026 +00000-0 +31525-4 0  9991
2 27847 098.6832 157.9965 0009645 022.0006 338.1584 14.22054176721826
Source of the keplerian elements: AFSPC